View from above orbital plane
|
View from above satellite
|
Ground track
|
The orbit data is extracted from the following two-line orbital elements,
1 19211U 88050B 21055.36268512 .00000102 00000-0 94933-5 0 9997
2 19211 82.5275 21.3685 0021789 358.8484 153.8730 14.83099012745524
Epoch (UTC): | 24 February 2021 08:42:15 |
Eccentricity: | 0.0021789 |
inclination: | 82.5275° |
perigee height: | 604 km |
apogee height: | 635 km |
right ascension of ascending node: | 21.3685° |
argument of perigee: | 358.8484° |
revolutions per day: | 14.83099012 |
mean anomaly at epoch: | 153.8730° |
orbit number at epoch: | 74552 |
The dashed part of the orbit path shows where the satellite is in the earth's shadow,
|
|